カタログに戻る

TITAN 3C TRANSTAGE DEB

運用中MEO
NORAD 38703·DEBRIS·🇺🇸 United States

打ち上げ Sep 26, 1968 から Cape Canaveral Space Force Station

Loading…

次のパス (今後24時間)

TLE

最新Source: Space-Track

元期: Sep 14, 2026, 07:54 UTC

1 38703U 68081AD  26257.32951226 -.00000120  00000-0  00000-0 0  9990
2 38703   3.0852  77.4356 0239117  75.1956 287.8672  1.05420465 48402

AllMySatでTITAN 3C TRANSTAGE DEBをリアルタイム追跡

Download on the App Store